CST,Max TemperatureF,Mean TemperatureF,Min TemperatureF,Max Dew PointF,MeanDew PointF,Min DewpointF,Max Humidity, Mean Humidity, Min Humidity, Max Sea Level PressureIn, Mean Sea Level PressureIn, Min Sea Level PressureIn, Max VisibilityMiles, Mean VisibilityMiles, Min VisibilityMiles, Max Wind SpeedMPH, Mean Wind SpeedMPH, Max Gust SpeedMPH,PrecipitationIn, CloudCover, Events, WindDirDegrees
2013-12-1,69,52,34,53,43,32,92,74,44,30.26,30.14,29.99,10,10,10,7,1,,0.00,1,,190
2013-12-2,71,62,52,61,56,49,100,82,66,29.97,29.84,29.74,10,10,10,10,5,18,0.01,6,Rain,190
2013-12-3,75,68,62,66,63,61,100,86,60,29.80,29.76,29.69,10,10,8,14,6,21,0.00,6,,195
2013-12-4,79,72,66,68,66,64,96,83,60,29.93,29.86,29.80,10,8,4,15,9,23,0.00,6,,185
2013-12-5,81,76,70,72,69,67,94,86,64,30.02,29.95,29.90,10,9,5,14,8,,0.01,7,Rain,185
2013-12-6,73,55,37,70,49,34,100,94,87,30.26,30.05,29.91,10,6,1,17,8,23,0.19,8,Rain,336
2013-12-7,37,34,32,36,33,30,100,91,85,30.38,30.29,30.26,8,4,1,15,9,22,0.00,8,,14
2013-12-8,46,42,37,46,41,36,100,96,93,30.26,30.12,30.04,10,3,1,10,3,,3.01,8,Rain-Thunderstorm,2
2013-12-9,46,42,39,46,44,37,100,95,90,30.16,30.11,30.07,10,5,1,15,5,,0.06,8,Rain,4
2013-12-10,46,40,34,37,32,30,97,79,52,30.40,30.30,30.16,10,10,4,17,11,32,0.08,4,Rain,352
2013-12-11,55,44,32,45,35,28,85,69,52,30.45,30.38,30.33,10,10,10,9,4,,0.00,4,,6
2013-12-12,55,44,33,31,25,18,82,58,24,30.54,30.46,30.38,10,10,10,10,7,17,0.00,0,,22
2013-12-13,57,44,32,51,36,21,86,66,49,30.35,30.17,29.92,10,10,5,9,2,20,0.00,1,,127
2013-12-14,68,56,44,61,54,39,100,87,68,30.11,29.92,29.83,10,8,1,17,8,28,0.53,7,Rain,286
2013-12-15,48,39,30,38,32,28,92,72,52,30.32,30.24,30.12,10,10,6,16,10,24,0.00,4,,349
2013-12-16,61,44,27,37,31,25,96,70,29,30.35,30.30,30.24,10,9,4,5,0,,0.00,0,,220
2013-12-17,64,47,30,40,35,28,93,71,34,30.35,30.29,30.24,10,10,6,8,1,,0.00,0,,291
2013-12-18,66,50,34,41,36,32,93,67,34,30.38,30.29,30.22,10,10,9,8,2,,0.00,0,,156
2013-12-19,70,54,39,56,50,35,89,75,57,30.20,30.12,30.03,10,10,7,18,4,26,0.00,6,,157
2013-12-20,75,68,60,66,62,56,94,82,69,30.06,30.00,29.94,10,10,10,14,8,22,0.00,8,,159
2013-12-21,78,69,59,70,65,57,94,83,68,29.94,29.80,29.70,10,9,2,22,14,38,0.25,8,Rain-Thunderstorm,183
2013-12-22,64,58,51,57,55,49,100,91,75,30.17,29.96,29.82,10,8,1,14,3,,0.62,8,Rain-Thunderstorm,311
2013-12-23,48,40,32,46,33,27,93,77,56,30.50,30.35,30.18,10,10,6,16,12,23,0.00,5,,350
2013-12-24,50,40,30,28,25,22,85,64,35,30.55,30.47,30.39,10,10,10,10,6,16,0.00,0,,19
2013-12-25,48,38,27,31,25,22,85,65,35,30.41,30.37,30.31,10,10,10,7,2,,0.00,0,,37
2013-12-26,57,44,30,35,29,24,85,57,36,30.40,30.34,30.30,10,10,10,7,3,,0.00,0,,17
2013-12-27,53,46,39,34,32,28,79,58,38,30.44,30.36,30.29,10,10,10,7,5,,0.00,1,,24
2013-12-28,48,45,42,46,42,29,100,89,50,30.30,30.12,29.98,10,7,2,10,5,,0.65,8,Rain,359
2013-12-29,59,50,42,46,43,37,100,86,44,30.13,30.05,29.99,10,8,1,9,3,,0.01,4,,312
2013-12-30,53,48,41,45,42,35,97,84,64,30.34,30.21,30.12,10,10,7,13,2,,0.00,4,,332
2013-12-31,46,40,35,37,34,32,87,77,58,30.43,30.37,30.31,10,10,10,12,7,,0.00,2,,10